EW5609 Weather Reports


time (UTC)temp
C
wind
direction
speed
KPH
gust
KPH
rain 1hr
cm
rain 24hr
cm
rain mn
cm
humidity
%
barometer
mb
20260509185402 11 274 0.0 0.0 0.13 1.02 1.02 92 1008.3
20260509184902 11 182 0.0 0.0 0.13 1.02 1.02 92 1008.3
20260509184630 11 132 0.0 0.0 0.13 0.99 1.02 92 1008.3
20260509183900 11 132 0.0 0.0 0.13 0.99 0.99 92 1008.3
20260509183359 11 250 0.0 0.0 0.13 0.99 0.99 92 1008.3
20260509182855 11 247 0.0 0.0 0.10 0.97 0.97 92 1008.3
20260509182352 11 248 0.0 0.0 0.08 0.94 0.94 92 1008.3
20260509181853 11 248 0.0 0.0 0.08 0.94 0.94 92 1008.3
20260509181347 11 205 0.0 0.0 0.05 0.91 0.91 92 1008.3
20260509180846 11 115 0.0 0.0 0.03 0.89 0.91 91 1008.3
20260509180343 11 257 0.0 0.0 0.03 0.89 0.89 92 1008.3
20260509175844 11 257 0.0 0.0 0.03 0.89 0.89 92 1008.3
20260509175811 11 175 0.0 0.0 0.03 0.89 0.89 92 1008.3
20260509174830 11 154 0.0 0.0 0.03 0.89 0.89 92 1008.3
20260509174548 11 166 0.0 0.0 0.00 0.86 0.86 92 1008.3
20260509174058 11 130 0.0 0.0 0.00 0.86 0.86 92 1008.3
20260509173328 12 269 0.0 0.0 0.00 0.86 0.86 92 1008.3
20260509173051 12 271 0.0 0.0 0.00 0.86 0.86 92 1008.3
20260509172324 12 270 0.0 0.0 0.03 0.86 0.86 92 1008.2
20260509171823 11 279 0.0 0.0 0.03 0.86 0.86 92 1008.2
20260509171537 11 280 0.0 0.0 0.03 0.86 0.86 92 1008.2
20260509170817 11 239 0.0 0.0 0.03 0.86 0.86 92 1008.2
20260509170318 11 236 0.0 0.0 0.03 0.86 0.86 92 1008.2
20260509165810 11 161 0.0 0.0 0.03 0.86 0.86 92 1008.2
20260509165309 11 157 0.0 0.0 0.03 0.86 0.86 92 1008.3
20260509164807 11 156 0.0 0.0 0.03 0.86 0.86 92 1008.3
20260509164308 11 130 0.0 0.0 0.03 0.86 0.86 92 1008.3
20260509163803 11 118 0.0 0.0 0.03 0.86 0.86 92 1008.3
20260509163304 11 118 0.0 0.0 0.03 0.86 0.86 92 1008.4
20260509163029 11 123 0.0 1.6 0.03 0.86 0.86 92 1008.5
20260509162306 11 123 0.0 1.6 0.00 0.84 0.84 92 1008.5
20260509162029 11 197 0.0 0.0 0.00 0.84 0.84 92 1008.5
20260509161302 11 133 0.0 0.0 0.00 0.84 0.84 92 1008.5
20260509160800 11 254 0.0 0.0 0.03 0.84 0.84 92 1008.7
20260509160259 11 120 0.0 0.0 0.03 0.84 0.84 92 1008.7
20260509155800 11 121 0.0 0.0 0.03 0.84 0.84 92 1008.7
20260509155300 11 129 0.0 0.0 0.03 0.84 0.84 92 1008.8
20260509154801 11 259 0.0 6.4 0.03 0.84 0.84 92 1008.8
20260509154301 11 198 0.0 6.4 0.03 0.84 0.84 92 1008.8
20260509153801 11 116 0.0 0.0 0.05 0.84 0.84 92 1008.8
20260509153301 11 130 1.6 17.7 0.05 0.84 0.84 92 1008.8
20260509153014 11 119 1.6 17.7 0.05 0.84 0.84 93 1008.8
20260509152513 11 263 0.0 14.5 0.08 0.84 0.84 93 1008.8
20260509151747 11 143 0.0 0.0 0.08 0.84 0.84 93 1008.8
20260509151245 11 138 0.0 0.0 0.08 0.84 0.84 93 1008.8
20260509150743 10 138 0.0 0.0 0.05 0.81 0.81 93 1009.0
20260509150245 10 142 0.0 14.5 0.08 0.81 0.81 93 1009.0
20260509145742 10 136 0.0 14.5 0.08 0.81 0.81 93 1009.1
20260509145502 10 131 0.0 0.0 0.08 0.81 0.81 93 1009.1
20260509144741 10 132 0.0 0.0 0.10 0.81 0.81 93 1009.2
20260509144240 10 143 0.0 0.0 0.10 0.81 0.81 93 1009.3
20260509143739 10 128 0.0 0.0 0.08 0.79 0.79 93 1009.2
20260509143232 10 0 0.0 0.0 0.08 0.79 0.79 94 1009.4
20260509142731 10 0 0.0 0.0 0.10 0.79 0.79 94 1009.4
20260509142447 10 0 0.0 0.0 0.08 0.76 0.79 94 1009.4
20260509141730 10 0 0.0 0.0 0.08 0.76 0.76 93 1009.4
20260509141223 10 0 0.0 0.0 0.08 0.76 0.76 93 1009.5
20260509140940 10 0 0.0 0.0 0.10 0.76 0.76 93 1009.4
20260509140221 10 0 0.0 0.0 0.08 0.74 0.74 93 1009.5
20260509135718 10 0 0.0 0.0 0.08 0.74 0.74 93 1009.4
20260509135217 10 0 0.0 0.0 0.08 0.74 0.74 93 1009.5
20260509134939 10 0 0.0 0.0 0.08 0.71 0.71 93 1009.4
20260509134441 10 0 0.0 0.0 0.08 0.71 0.71 94 1009.4
20260509133716 10 0 0.0 0.0 0.08 0.71 0.71 94 1009.4
20260509133214 10 296 0.0 0.0 0.10 0.71 0.71 94 1009.5
20260509132712 10 296 0.0 0.0 0.10 0.69 0.69 94 1009.5
20260509132211 10 0 0.0 0.0 0.10 0.69 0.69 93 1009.5
20260509131711 10 296 0.0 0.0 0.13 0.69 0.69 93 1009.6
20260509131640 10 111 0.0 0.0 0.10 0.66 0.66 93 1009.6
20260509130622 10 111 0.0 0.0 0.13 0.66 0.66 93 1009.5
20260509130052 9 111 0.0 0.0 0.18 0.66 0.66 93 1009.7
20260509125527 9 138 0.0 1.6 0.18 0.66 0.66 93 1009.7
20260509125229 9 139 0.0 1.6 0.20 0.66 0.66 93 1009.7
20260509124433 9 113 0.0 1.6 0.20 0.64 0.64 93 1009.7
20260509123908 9 0 0.0 0.0 0.23 0.64 0.64 93 1009.7
20260509123356 9 0 0.0 0.0 0.20 0.61 0.61 93 1009.7
20260509122853 9 0 0.0 0.0 0.23 0.61 0.61 93 1009.8
20260509122351 9 0 0.0 0.0 0.20 0.58 0.58 93 1009.9
20260509121852 9 0 0.0 0.0 0.20 0.56 0.56 93 1009.8
20260509121348 9 129 0.0 0.0 0.20 0.56 0.56 93 1009.9
20260509120845 9 132 0.0 0.0 0.20 0.53 0.53 93 1009.8
20260509120344 9 130 0.0 0.0 0.18 0.51 0.51 93 1009.8
20260509115843 9 80 0.0 0.0 0.15 0.48 0.48 93 1009.9
20260509115343 9 14 0.0 0.0 0.15 0.46 0.46 93 1009.9
20260509114841 9 126 0.0 0.0 0.13 0.43 0.43 93 1009.9
20260509114339 9 126 0.0 0.0 0.13 0.43 0.43 93 1010.0
20260509113841 8 142 0.0 0.0 0.13 0.41 0.43 93 1009.9
20260509113334 8 288 0.0 0.0 0.13 0.41 0.41 93 1009.9
20260509113054 8 288 0.0 0.0 0.13 0.38 0.38 93 1009.8
20260509112331 8 288 0.0 0.0 0.15 0.38 0.38 93 1009.9
20260509112315 8 286 0.0 0.0 0.15 0.36 0.36 93 1009.9
20260509111315 8 286 0.0 0.0 0.20 0.36 0.36 93 1010.0
20260509110815 8 107 0.0 0.0 0.20 0.33 0.33 93 1009.9
20260509110252 8 102 0.0 0.0 0.23 0.33 0.33 93 1009.9
20260509105750 8 94 0.0 0.0 0.20 0.30 0.33 93 1009.8
20260509105249 8 82 0.0 0.0 0.20 0.30 0.30 93 1009.8
20260509104750 8 149 0.0 0.0 0.20 0.30 0.30 92 1009.7
20260509104249 8 151 0.0 0.0 0.18 0.28 0.30 93 1009.7
20260509103747 8 151 0.0 0.0 0.18 0.28 0.28 92 1009.6
20260509103243 8 150 0.0 0.0 0.15 0.25 0.28 92 1009.6
20260509102743 8 150 0.0 0.0 0.18 0.25 0.25 92 1009.8
20260509102239 7 150 0.0 0.0 0.15 0.23 0.23 92 1009.9
20260509101738 7 150 0.0 0.0 0.10 0.18 0.20 92 1009.9
20260509101231 7 150 0.0 0.0 0.08 0.15 0.15 92 1009.9
20260509100730 7 150 0.0 0.0 0.05 0.13 0.13 92 1009.9
20260509100228 7 150 0.0 0.0 0.03 0.10 0.10 92 1009.8
20260509095728 7 150 0.0 0.0 0.03 0.10 0.10 92 1009.7
20260509095213 7 150 0.0 0.0 0.03 0.10 0.10 92 1009.7
20260509094712 7 150 0.0 0.0 0.03 0.10 0.10 92 1009.6
20260509094205 7 150 0.0 0.0 0.03 0.10 0.10 92 1009.8
20260509093705 7 150 0.0 0.0 0.03 0.10 0.10 92 1009.7
20260509093206 7 150 0.0 0.0 0.03 0.10 0.10 92 1009.7
20260509092701 7 150 0.0 0.0 0.00 0.08 0.08 92 1009.7
20260509092200 7 150 0.0 0.0 0.00 0.08 0.08 92 1009.8
20260509091700 7 150 0.0 0.0 0.00 0.08 0.08 92 1009.8
20260509091157 7 150 0.0 0.0 0.00 0.08 0.08 92 1009.7
20260509090658 7 150 0.0 0.0 0.00 0.08 0.08 92 1009.7
20260509090427 7 150 0.0 0.0 0.00 0.08 0.08 92 1009.7
20260509085651 7 150 0.0 0.0 0.00 0.08 0.08 91 1009.8
20260509085149 7 150 0.0 0.0 0.00 0.08 0.08 91 1009.8
20260509084647 7 150 0.0 0.0 0.00 0.08 0.08 91 1009.8
20260509084149 7 150 0.0 0.0 0.00 0.08 0.08 91 1009.7
20260509083635 7 150 0.0 0.0 0.00 0.08 0.08 91 1009.8
20260509083132 7 150 0.0 0.0 0.00 0.08 0.08 91 1009.9
20260509082626 7 150 0.0 0.0 0.00 0.08 0.08 91 1009.9
20260509082124 7 150 0.0 0.0 0.00 0.08 0.08 91 1009.9
20260509081621 7 150 0.0 0.0 0.00 0.08 0.08 91 1010.0
20260509081119 7 150 0.0 0.0 0.00 0.08 0.08 90 1010.1
20260509080617 7 150 0.0 0.0 0.00 0.08 0.08 90 1010.2
20260509080115 7 150 0.0 0.0 0.00 0.08 0.08 90 1010.2
20260509075614 7 150 0.0 0.0 0.00 0.08 0.08 90 1010.3
20260509075337 7 150 0.0 0.0 0.00 0.08 0.08 90 1010.3
20260509074605 7 150 0.0 0.0 0.00 0.08 0.08 90 1010.5
20260509074102 7 150 0.0 0.0 0.00 0.08 0.08 90 1010.4
20260509073602 7 150 0.0 0.0 0.00 0.08 0.08 90 1010.5
20260509073101 7 150 0.0 0.0 0.03 0.08 0.08 89 1010.4
20260509072600 7 150 0.0 0.0 0.03 0.08 0.08 89 1010.4
20260509072057 7 150 0.0 0.0 0.03 0.08 0.08 89 1010.4
20260509071558 7 150 0.0 0.0 0.03 0.08 0.08 89 1010.3
20260509071044 7 150 0.0 0.0 0.05 0.08 0.08 89 1010.3
20260509070543 7 150 0.0 0.0 0.05 0.08 0.08 89 1010.2
20260509070013 7 152 0.0 0.0 0.05 0.08 0.08 88 1010.2
20260509065443 7 152 0.0 0.0 0.05 0.08 0.08 88 1010.3
20260509064935 7 152 0.0 0.0 0.08 0.08 0.08 87 1010.4
20260509064433 7 152 0.0 0.0 0.08 0.08 0.08 87 1010.4
20260509063920 7 152 0.0 0.0 0.08 0.08 0.08 87 1010.3
20260509063420 7 152 0.0 0.0 0.05 0.05 0.08 87 1010.4
20260509063356 7 152 0.0 0.0 0.05 0.05 0.05 86 1010.5
20260509062416 7 152 0.0 0.0 0.05 0.05 0.05 86 1010.6
20260509061915 7 152 0.0 0.0 0.05 0.05 0.05 85 1010.8
20260509061408 7 152 0.0 0.0 0.05 0.05 0.05 85 1010.8
20260509060908 7 152 0.0 0.0 0.03 0.03 0.03 85 1011.0
20260509060401 7 152 0.0 0.0 0.03 0.03 0.03 84 1011.0
20260509055901 7 152 0.0 0.0 0.03 0.03 0.03 84 1011.1
20260509055359 7 152 0.0 0.0 0.03 0.03 0.03 84 1011.0
20260509055122 7 152 0.0 0.0 0.00 0.00 0.00 83 1011.0
20260509054357 7 152 0.0 0.0 0.00 0.00 0.00 83 1011.1
20260509053859 7 152 0.0 0.0 0.00 0.00 0.00 83 1011.1
20260509053334 7 152 0.0 0.0 0.00 0.00 0.00 82 1011.1
20260509052811 7 152 0.0 0.0 0.00 0.00 0.00 82 1011.2
20260509052241 7 152 0.0 0.0 0.00 0.00 0.00 81 1011.2
20260509051717 7 152 0.0 0.0 0.00 0.00 0.00 81 1011.1
20260509051152 7 152 0.0 0.0 0.00 0.00 0.00 81 1011.2
20260509050901 7 152 0.0 0.0 0.00 0.00 0.00 81 1011.1
20260509050140 7 152 0.0 0.0 0.00 0.00 0.00 81 1011.0
20260509045637 7 152 0.0 0.0 0.00 0.00 0.00 81 1011.0
20260509045136 7 155 0.0 0.0 0.00 0.00 0.00 81 1011.0
20260509044634 7 155 0.0 0.0 0.00 0.00 0.00 81 1011.0
20260509044132 7 154 0.0 0.0 0.00 0.00 0.00 81 1011.1
20260509043856 7 154 0.0 0.0 0.00 0.00 0.00 81 1011.1
20260509043131 7 154 0.0 0.0 0.00 0.00 0.00 80 1011.1
20260509042859 7 154 0.0 0.0 0.00 0.00 0.00 80 1011.1
20260509042132 7 154 0.0 0.0 0.00 0.00 0.00 80 1011.2
20260509041624 7 154 0.0 0.0 0.00 0.00 0.00 80 1011.3
20260509041122 7 154 0.0 0.0 0.00 0.00 0.00 80 1011.3
20260509040849 7 154 0.0 0.0 0.00 0.00 0.00 80 1011.2
20260509040121 7 154 0.0 0.0 0.00 0.00 0.00 80 1011.3
20260509035554 7 154 0.0 0.0 0.00 0.00 0.00 80 1011.4
20260509035306 7 154 0.0 0.0 0.00 0.00 0.00 81 1011.3
20260509034545 7 154 0.0 0.0 0.00 0.00 0.00 82 1011.4
20260509034308 7 154 0.0 0.0 0.00 0.00 0.00 82 1011.3
20260509033809 7 154 0.0 0.0 0.00 0.00 0.00 82 1011.4
20260509033039 7 155 0.0 0.0 0.00 0.00 0.00 82 1011.4
20260509032759 7 155 0.0 0.0 0.00 0.00 0.00 82 1011.4
20260509032036 7 155 0.0 0.0 0.00 0.00 0.00 81 1011.4
20260509031533 7 155 0.0 0.0 0.00 0.00 0.00 80 1011.3
20260509031033 7 155 0.0 0.0 0.00 0.00 0.00 80 1011.2
20260509030533 7 155 0.0 0.0 0.00 0.00 0.00 79 1011.2
20260509030250 7 155 0.0 0.0 0.00 0.00 0.00 78 1011.3
20260509025523 7 155 0.0 0.0 0.00 0.00 0.00 78 1011.3
20260509025023 7 155 0.0 0.0 0.00 0.00 0.00 77 1011.4
20260509024521 7 155 0.0 0.0 0.00 0.00 0.00 76 1011.5
20260509024021 7 155 0.0 0.0 0.00 0.00 0.00 75 1011.5
20260509023459 7 155 0.0 0.0 0.00 0.00 0.00 74 1011.5
20260509022958 7 155 0.0 0.0 0.00 0.00 0.00 74 1011.4
20260509022455 7 155 0.0 0.0 0.00 0.00 0.00 74 1011.4
20260509021952 7 155 0.0 0.0 0.00 0.00 0.00 73 1011.3
20260509021720 8 155 0.0 0.0 0.00 0.00 0.00 72 1011.3
20260509021215 8 155 0.0 0.0 0.00 0.00 0.00 72 1011.3
20260509020706 8 155 0.0 0.0 0.00 0.00 0.00 72 1011.3
20260509015940 8 155 0.0 0.0 0.00 0.00 0.00 71 1011.3
20260509015706 8 155 0.0 0.0 0.00 0.00 0.00 71 1011.4
20260509014936 8 155 0.0 0.0 0.00 0.00 0.00 71 1011.3
20260509014701 8 155 0.0 0.0 0.00 0.00 0.00 71 1011.4
20260509013938 8 155 0.0 0.0 0.00 0.00 0.00 70 1011.3
20260509013433 8 155 0.0 0.0 0.00 0.00 0.00 70 1011.3
20260509012936 8 155 0.0 0.0 0.00 0.00 0.00 69 1011.2
20260509012409 8 155 0.0 0.0 0.00 0.00 0.00 68 1011.1
20260509012104 9 155 0.0 0.0 0.00 0.00 0.00 67 1011.0
20260509011533 9 155 0.0 0.0 0.00 0.00 0.00 66 1011.0
20260509010747 10 155 0.0 0.0 0.00 0.00 0.00 64 1011.0
20260509010222 10 155 0.0 0.0 0.00 0.00 0.00 63 1010.9
20260509005655 10 155 0.0 0.0 0.00 0.00 0.00 63 1010.8
20260509005129 11 155 0.0 0.0 0.00 0.00 0.00 63 1010.8
20260509004603 11 155 0.0 0.0 0.00 0.00 0.00 62 1010.6
20260509004038 11 134 0.0 0.0 0.00 0.00 0.00 59 1010.4
20260509003511 10 105 0.0 0.0 0.00 0.00 0.00 60 1010.4
20260509002947 10 101 0.0 0.0 0.00 0.00 0.00 59 1010.4
20260509002419 10 101 0.0 0.0 0.00 0.00 0.00 60 1010.2
20260509001900 11 101 0.0 0.0 0.00 0.00 0.00 61 1010.3
20260509001400 11 101 0.0 0.0 0.00 0.00 0.00 61 1010.2
20260509000834 11 101 0.0 0.0 0.00 0.00 0.00 60 1010.1
20260509000320 11 101 0.0 0.0 0.00 0.00 0.00 60 1010.1
20260508235818 11 101 0.0 0.0 0.00 0.00 0.00 59 1010.1
20260508235249 11 101 0.0 0.0 0.00 0.00 0.00 58 1010.0
20260508234724 12 101 0.0 0.0 0.00 0.00 0.00 56 1010.0
20260508234421 12 101 0.0 0.0 0.00 0.00 0.00 53 1009.9
20260508233911 12 101 0.0 0.0 0.00 0.00 0.00 53 1009.9
20260508233148 12 88 0.0 0.0 0.00 0.00 0.00 52 1009.8
20260508232641 12 88 0.0 0.0 0.00 0.00 0.00 51 1009.8
20260508232141 12 88 0.0 0.0 0.00 0.00 0.00 50 1009.7
20260508231639 12 88 0.0 0.0 0.00 0.00 0.00 51 1009.7
20260508231137 12 87 0.0 0.0 0.00 0.00 0.00 50 1009.7
20260508230638 12 89 0.0 0.0 0.00 0.00 0.00 50 1009.7
20260508230400 13 184 0.0 0.0 0.00 0.00 0.00 51 1009.8
20260508225633 13 184 0.0 0.0 0.00 0.00 0.00 51 1009.7
20260508225133 13 184 0.0 0.0 0.00 0.00 0.00 50 1009.6
20260508224854 13 184 0.0 0.0 0.00 0.00 0.00 49 1009.6
20260508224127 13 184 0.0 0.0 0.00 0.00 0.00 49 1009.6
20260508223628 13 184 0.0 0.0 0.00 0.00 0.00 48 1009.7
20260508223120 13 304 0.0 0.0 0.00 0.00 0.00 48 1009.7
20260508222847 13 304 0.0 0.0 0.00 0.00 0.00 49 1009.6
20260508222116 13 304 0.0 0.0 0.00 0.00 0.00 49 1009.7
20260508221615 13 305 0.0 0.0 0.00 0.00 0.00 49 1009.7
20260508221116 13 0 0.0 0.0 0.00 0.00 0.00 48 1009.7
20260508220613 13 304 0.0 1.6 0.00 0.00 0.00 49 1009.5
20260508220114 13 309 0.0 1.6 0.00 0.00 0.00 48 1009.7
20260508215553 13 348 0.0 0.0 0.00 0.00 0.00 48 1009.6
20260508215054 13 328 0.0 0.0 0.00 0.00 0.00 47 1009.7
20260508214540 13 302 0.0 1.6 0.00 0.00 0.00 47 1009.7
20260508214300 13 0 0.0 1.6 0.00 0.00 0.00 48 1009.7
20260508214027 13 0 0.0 0.0 0.00 0.00 0.00 49 1009.8
20260508213037 13 0 0.0 0.0 0.00 0.00 0.00 48 1009.8
20260508212536 13 310 0.0 0.0 0.00 0.00 0.00 48 1009.9
20260508212031 13 310 0.0 0.0 0.00 0.00 0.00 47 1009.9
20260508211533 13 0 0.0 0.0 0.00 0.00 0.00 48 1010.0
20260508211030 13 0 0.0 0.0 0.00 0.00 0.00 48 1010.0
20260508210744 13 0 0.0 1.6 0.00 0.00 0.00 48 1010.0
20260508210023 13 305 0.0 1.6 0.00 0.00 0.00 49 1010.0
20260508205524 13 285 0.0 0.0 0.00 0.00 0.00 47 1010.0
20260508205018 13 311 0.0 0.0 0.00 0.00 0.00 46 1010.1
20260508204746 13 355 0.0 0.0 0.00 0.00 0.00 48 1010.1
20260508204014 13 0 0.0 12.9 0.00 0.00 0.00 47 1010.2
20260508203514 13 32 0.0 12.9 0.00 0.00 0.00 48 1010.1
20260508203003 13 0 0.0 16.1 0.00 0.00 0.00 48 1010.3
20260508202504 13 331 0.0 16.1 0.00 0.00 0.00 47 1010.3
20260508201940 13 0 0.0 1.6 0.00 0.00 0.00 47 1010.4
20260508201438 13 242 0.0 9.7 0.00 0.00 0.00 47 1010.4
20260508200937 13 0 0.0 9.7 0.00 0.00 0.00 46 1010.4
20260508200436 13 300 0.0 1.6 0.00 0.00 0.00 47 1010.4
20260508195938 13 274 0.0 14.5 0.00 0.00 0.00 46 1010.5
20260508195433 13 308 0.0 14.5 0.00 0.00 0.00 45 1010.6
20260508194930 13 284 1.6 16.1 0.00 0.00 0.00 48 1010.8
20260508194433 12 0 3.2 22.5 0.00 0.00 0.00 47 1010.8
20260508193930 13 278 3.2 22.5 0.00 0.00 0.00 47 1010.8
20260508193651 13 0 0.0 12.9 0.00 0.00 0.00 47 1010.9
20260508193205 13 0 0.0 3.2 0.00 0.00 0.00 48 1010.8
20260508192419 12 0 0.0 4.8 0.00 0.00 0.00 48 1010.9
20260508191918 13 286 0.0 4.8 0.00 0.00 0.00 47 1011.1
20260508191416 13 0 1.6 16.1 0.00 0.00 0.00 48 1011.1
20260508191134 12 0 0.0 16.1 0.00 0.00 0.00 50 1011.2
20260508190356 12 0 0.0 4.8 0.00 0.00 0.00 49 1011.4
20260508190119 12 278 1.6 22.5 0.00 0.00 0.00 51 1011.4